Starlink 5903

operational
NORAD ID: 55996 Int'l Des: 2023-042 Owner: SPXS Country: US Constellation: starlink
LEOCIRCULAR

About Starlink 5903

Description loading...

Live Position

Loading 3D Globe...

Upcoming Passes

Altitude History

Altitude vs Time

uPlot chart will show altitude changes over time

Two-Line Element Set

1 55996U 23042L 25303.01019486 .00000407 00000-0 45220-4 0 9995
2 55996 43.0049 46.1150 0001263 267.1924 92.8774 15.02542436143250
Epoch: Oct 30, 2025 • Age: 24 hours

Current Status

Altitude 559.2 km
Velocity 7.59 km/s
Sub-Earth Point 23.48°N, 23.69°E
Launch Date Mar 24, 2023
Age 2.6 years
Type internet

Technical Details

Classification Payload
Mass 305.00 kg
Dry Mass 290.00 kg
Total Mass 305.00 kg
Length 0.20 m
Diameter 2.80 m
Span 9.00 m
Shape Box + pan
Manufacturer SPXS
Bus Type Starlink
Phase Status In Orbit
Owner/State SPXS/US

Large Constellations

Loading constellations...